Simultaneous Nadir Overpasses (SNOs) Predictions

Prediction of SNOs between AQUA and LANDSAT-8 Satellite Orbit:

Table of predicted SNOs for the next 14.0 days since TLE Epoch: 7/23/2025
Index Date (AQUA) Time (AQUA) Lat,Lon (AQUA) SZA (AQUA ) Date (LANDSAT-8) Time (LANDSAT-8) Lat,Lon (LANDSAT-8) SZA (LANDSAT-8 ) Distance(km) Time Diff (sec)
1 08/05/2025 13:51:51 75.06, -19.09 58.32 08/05/2025 13:50:46 75.05, -22.04 58.21 84.64 65
2 08/05/2025 14:41:17 -75.50, 147.37 121.29 08/05/2025 14:40:05 -75.49, 146.80 121.31 16.02 72
3 08/05/2025 15:30:38 75.62, -45.33 58.84 08/05/2025 15:29:28 75.61, -45.23 58.82 3.25 70
4 08/05/2025 16:19:55 -75.61, 122.40 121.17 08/05/2025 16:18:56 -75.59, 122.37 121.19 1.72 59
5 08/05/2025 17:09:13 75.59, -69.87 58.83 08/05/2025 17:08:21 75.61, -69.95 58.84 3.34 52
6 08/05/2025 17:58:31 -75.62, 97.71 121.14 08/05/2025 17:57:49 -75.60, 97.65 121.17 3.08 42
7 08/05/2025 18:47:49 75.60, -94.55 58.86 08/05/2025 18:47:14 75.61, -94.66 58.87 3.31 35
8 08/05/2025 19:37:07 -75.63, 73.03 121.11 08/05/2025 19:36:41 -75.65, 73.08 121.09 2.33 26
9 08/05/2025 20:26:25 75.61,-119.24 58.89 08/05/2025 20:26:07 75.61,-119.37 58.89 3.80 18
10 08/05/2025 21:15:43 -75.64, 48.34 121.07 08/05/2025 21:15:34 -75.65, 48.37 121.07 0.97 9
11 08/05/2025 22:05:02 75.67,-144.07 58.97 08/05/2025 22:04:59 75.67,-143.94 58.96 3.53 3
12 08/05/2025 22:54:19 -75.66, 23.66 121.04 08/05/2025 22:54:27 -75.65, 23.65 121.05 0.42 8
13 08/05/2025 23:43:38 75.68,-168.75 59.00 08/05/2025 23:43:52 75.67,-168.66 58.98 3.25 14
14 08/06/2025 00:32:55 -75.67, -1.02 121.01 08/06/2025 00:33:20 -75.65, -1.06 121.03 1.77 25
15 08/06/2025 01:22:13 75.65, 166.71 58.98 08/06/2025 01:22:45 75.67, 166.63 59.01 3.30 32
16 08/06/2025 02:11:31 -75.68, -25.71 120.98 08/06/2025 02:12:13 -75.66, -25.77 121.00 3.13 42
17 08/06/2025 03:00:49 75.66, 142.03 59.01 08/06/2025 03:01:38 75.67, 141.92 59.03 3.28 49



Historial Predications of SNOs between AQUA and LANDSAT-8
